owner,sensor,date,latitude,longitude,air_pressure(mBar),qcFlag 
COMPS,ioos:station:USF.COMPS:C10:1,2016-01-01T05:05:00Z,27.1690,-82.9260,1033.04,1111122 
COMPS,ioos:station:USF.COMPS:C10:1,2016-01-01T05:35:00Z,27.1690,-82.9260,1032.75,1111122 
COMPS,ioos:station:USF.COMPS:C10:1,2016-01-01T06:05:00Z,27.1690,-82.9260,1032.91,1111122 
COMPS,ioos:station:USF.COMPS:C10:1,2016-01-01T06:35:00Z,27.1690,-82.9260,1032.91,1111122 
COMPS,ioos:station:USF.COMPS:C10:1,2016-01-01T07:05:00Z,27.1690,-82.9260,1032.54,1111122 
COMPS,ioos:station:USF.COMPS:C10:1,2016-01-01T07:35:00Z,27.1690,-82.9260,1032.52,1111122 
COMPS,ioos:station:USF.COMPS:C10:1,2016-01-01T08:05:00Z,27.1690,-82.9260,1032.36,1111122 
COMPS,ioos:station:USF.COMPS:C10:1,2016-01-01T08:35:00Z,27.1690,-82.9260,1032.42,1111122 
COMPS,ioos:station:USF.COMPS:C10:1,2016-01-01T09:05:00Z,27.1690,-82.9260,1032.2,1111122 
COMPS,ioos:station:USF.COMPS:C10:1,2016-01-01T09:35:00Z,27.1690,-82.9260,1032.26,1111122 
COMPS,ioos:station:USF.COMPS:C10:1,2016-01-01T10:05:00Z,27.1690,-82.9260,1032.31,1111122 
COMPS,ioos:station:USF.COMPS:C10:1,2016-01-01T10:35:00Z,27.1690,-82.9260,1032.47,1111122 
COMPS,ioos:station:USF.COMPS:C10:1,2016-01-01T11:05:00Z,27.1690,-82.9260,1032.54,1111122 
COMPS,ioos:station:USF.COMPS:C10:1,2016-01-01T11:35:00Z,27.1690,-82.9260,1032.65,1111122 
COMPS,ioos:station:USF.COMPS:C10:1,2016-01-01T12:05:00Z,27.1690,-82.9260,1032.75,1111122 
COMPS,ioos:station:USF.COMPS:C10:1,2016-01-01T12:35:00Z,27.1690,-82.9260,1032.8,1111122 
COMPS,ioos:station:USF.COMPS:C10:1,2016-01-01T13:05:00Z,27.1690,-82.9260,1033.04,1111122 
COMPS,ioos:station:USF.COMPS:C10:1,2016-01-01T13:35:00Z,27.1690,-82.9260,1033.24,1111122 
COMPS,ioos:station:USF.COMPS:C10:1,2016-01-01T14:05:00Z,27.1690,-82.9260,1033.54,1111122 
COMPS,ioos:station:USF.COMPS:C10:1,2016-01-01T14:35:00Z,27.1690,-82.9260,1033.94,1111122 
COMPS,ioos:station:USF.COMPS:C10:1,2016-01-01T15:05:00Z,27.1690,-82.9260,1033.86,1111122 
COMPS,ioos:station:USF.COMPS:C10:1,2016-01-01T15:35:00Z,27.1690,-82.9260,1034.03,1111122 
COMPS,ioos:station:USF.COMPS:C10:1,2016-01-01T16:05:00Z,27.1690,-82.9260,1033.89,1111122 
COMPS,ioos:station:USF.COMPS:C10:1,2016-01-01T16:35:00Z,27.1690,-82.9260,1033.47,1111122 
COMPS,ioos:station:USF.COMPS:C10:1,2016-01-01T17:05:00Z,27.1690,-82.9260,1033.28,1111122 
COMPS,ioos:station:USF.COMPS:C10:1,2016-01-01T17:35:00Z,27.1690,-82.9260,1032.96,1111122 
COMPS,ioos:station:USF.COMPS:C10:1,2016-01-01T18:05:00Z,27.1690,-82.9260,1032.54,1111122 
COMPS,ioos:station:USF.COMPS:C10:1,2016-01-01T18:35:00Z,27.1690,-82.9260,1032.15,1111122 
COMPS,ioos:station:USF.COMPS:C10:1,2016-01-02T05:05:00Z,27.1690,-82.9260,1032.53,1111122 
COMPS,ioos:station:USF.COMPS:C10:1,2016-01-02T05:35:00Z,27.1690,-82.9260,1032.51,1111122 
COMPS,ioos:station:USF.COMPS:C10:1,2016-01-02T06:05:00Z,27.1690,-82.9260,1032.37,1111122 
COMPS,ioos:station:USF.COMPS:C10:1,2016-01-02T06:35:00Z,27.1690,-82.9260,1032.0,1111122 
COMPS,ioos:station:USF.COMPS:C10:1,2016-01-02T07:05:00Z,27.1690,-82.9260,1031.95,1111122 
COMPS,ioos:station:USF.COMPS:C10:1,2016-01-02T07:35:00Z,27.1690,-82.9260,1031.75,1111122 
COMPS,ioos:station:USF.COMPS:C10:1,2016-01-02T08:05:00Z,27.1690,-82.9260,1031.68,1111122 
COMPS,ioos:station:USF.COMPS:C10:1,2016-01-02T08:35:00Z,27.1690,-82.9260,1031.38,1111122 
COMPS,ioos:station:USF.COMPS:C10:1,2016-01-02T09:05:00Z,27.1690,-82.9260,1031.43,1111122 
COMPS,ioos:station:USF.COMPS:C10:1,2016-01-02T09:35:00Z,27.1690,-82.9260,1031.43,1111122 
COMPS,ioos:station:USF.COMPS:C10:1,2016-01-02T10:05:00Z,27.1690,-82.9260,1031.48,1111122 
COMPS,ioos:station:USF.COMPS:C10:1,2016-01-02T10:35:00Z,27.1690,-82.9260,1031.52,1111122 
COMPS,ioos:station:USF.COMPS:C10:1,2016-01-02T11:05:00Z,27.1690,-82.9260,1031.63,1111122 
COMPS,ioos:station:USF.COMPS:C10:1,2016-01-02T11:35:00Z,27.1690,-82.9260,1031.81,1111122 
COMPS,ioos:station:USF.COMPS:C10:1,2016-01-02T15:05:00Z,27.1690,-82.9260,1033.99,1111122 
COMPS,ioos:station:USF.COMPS:C10:1,2016-01-02T15:35:00Z,27.1690,-82.9260,1033.95,1111122 
COMPS,ioos:station:USF.COMPS:C10:1,2016-01-02T16:05:00Z,27.1690,-82.9260,1033.78,1111122 
COMPS,ioos:station:USF.COMPS:C10:1,2016-01-02T16:35:00Z,27.1690,-82.9260,1033.57,1111122 
COMPS,ioos:station:USF.COMPS:C10:1,2016-01-02T17:05:00Z,27.1690,-82.9260,1033.26,1111122 
COMPS,ioos:station:USF.COMPS:C10:1,2016-01-02T17:35:00Z,27.1690,-82.9260,1032.91,1111122 
COMPS,ioos:station:USF.COMPS:C10:1,2016-01-02T18:05:00Z,27.1690,-82.9260,1032.03,1111122 
COMPS,ioos:station:USF.COMPS:C10:1,2016-01-02T18:35:00Z,27.1690,-82.9260,1031.54,1111122 
COMPS,ioos:station:USF.COMPS:C10:1,2016-01-02T19:05:00Z,27.1690,-82.9260,1031.2,1111122 
COMPS,ioos:station:USF.COMPS:C10:1,2016-01-02T19:35:00Z,27.1690,-82.9260,1031.15,1111122 
COMPS,ioos:station:USF.COMPS:C10:1,2016-01-02T20:05:00Z,27.1690,-82.9260,1031.17,1111122 
COMPS,ioos:station:USF.COMPS:C10:1,2016-01-02T20:35:00Z,27.1690,-82.9260,1031.07,1111122 
COMPS,ioos:station:USF.COMPS:C10:1,2016-01-02T21:05:00Z,27.1690,-82.9260,1030.96,1111122 
COMPS,ioos:station:USF.COMPS:C10:1,2016-01-02T21:35:00Z,27.1690,-82.9260,1031.17,1111122 
COMPS,ioos:station:USF.COMPS:C10:1,2016-01-02T22:05:00Z,27.1690,-82.9260,1031.27,1111122 
COMPS,ioos:station:USF.COMPS:C10:1,2016-01-02T22:35:00Z,27.1690,-82.9260,1031.17,1111122 
COMPS,ioos:station:USF.COMPS:C10:1,2016-01-02T23:05:00Z,27.1690,-82.9260,1031.15,1111122 
COMPS,ioos:station:USF.COMPS:C10:1,2016-01-02T23:35:00Z,27.1690,-82.9260,1031.36,1111122 
COMPS,ioos:station:USF.COMPS:C10:1,2016-01-03T00:05:00Z,27.1690,-82.9260,1031.44,1111122 
COMPS,ioos:station:USF.COMPS:C10:1,2016-01-03T00:35:00Z,27.1690,-82.9260,1031.41,1111122 
COMPS,ioos:station:USF.COMPS:C10:1,2016-01-03T05:05:00Z,27.1690,-82.9260,1031.74,1111122 
COMPS,ioos:station:USF.COMPS:C10:1,2016-01-03T05:35:00Z,27.1690,-82.9260,1031.69,1111122 
COMPS,ioos:station:USF.COMPS:C10:1,2016-01-03T06:05:00Z,27.1690,-82.9260,1031.29,1111122 
COMPS,ioos:station:USF.COMPS:C10:1,2016-01-03T06:35:00Z,27.1690,-82.9260,1031.4,1111122 
COMPS,ioos:station:USF.COMPS:C10:1,2016-01-03T07:05:00Z,27.1690,-82.9260,1031.21,1111122 
COMPS,ioos:station:USF.COMPS:C10:1,2016-01-03T07:35:00Z,27.1690,-82.9260,1030.9,1111122 
COMPS,ioos:station:USF.COMPS:C10:1,2016-01-03T08:05:00Z,27.1690,-82.9260,1030.69,1111122 
COMPS,ioos:station:USF.COMPS:C10:1,2016-01-03T08:35:00Z,27.1690,-82.9260,1030.82,1111122 
COMPS,ioos:station:USF.COMPS:C10:1,2016-01-03T09:05:00Z,27.1690,-82.9260,1030.81,1111122 
COMPS,ioos:station:USF.COMPS:C10:1,2016-01-03T09:35:00Z,27.1690,-82.9260,1030.66,1111122 
COMPS,ioos:station:USF.COMPS:C10:1,2016-01-03T10:05:00Z,27.1690,-82.9260,1030.52,1111122 
COMPS,ioos:station:USF.COMPS:C10:1,2016-01-03T10:35:00Z,27.1690,-82.9260,1030.46,1111122 
COMPS,ioos:station:USF.COMPS:C10:1,2016-01-03T11:05:00Z,27.1690,-82.9260,1030.46,1111122 
COMPS,ioos:station:USF.COMPS:C10:1,2016-01-03T11:35:00Z,27.1690,-82.9260,1030.62,1111122 
COMPS,ioos:station:USF.COMPS:C10:1,2016-01-03T12:05:00Z,27.1690,-82.9260,1030.9,1111122 
COMPS,ioos:station:USF.COMPS:C10:1,2016-01-03T12:35:00Z,27.1690,-82.9260,1031.26,1111122 
COMPS,ioos:station:USF.COMPS:C10:1,2016-01-03T13:05:00Z,27.1690,-82.9260,1031.52,1111122 
COMPS,ioos:station:USF.COMPS:C10:1,2016-01-03T13:35:00Z,27.1690,-82.9260,1031.9,1111122 
COMPS,ioos:station:USF.COMPS:C10:1,2016-01-03T14:05:00Z,27.1690,-82.9260,1031.73,1111122 
COMPS,ioos:station:USF.COMPS:C10:1,2016-01-03T14:35:00Z,27.1690,-82.9260,1031.49,1111122 
COMPS,ioos:station:USF.COMPS:C10:1,2016-01-03T15:05:00Z,27.1690,-82.9260,1031.32,1111122 
COMPS,ioos:station:USF.COMPS:C10:1,2016-01-03T15:35:00Z,27.1690,-82.9260,1031.14,1111122 
COMPS,ioos:station:USF.COMPS:C10:1,2016-01-03T16:05:00Z,27.1690,-82.9260,1031.17,1111122 
COMPS,ioos:station:USF.COMPS:C10:1,2016-01-03T16:35:00Z,27.1690,-82.9260,1030.97,1111122 
COMPS,ioos:station:USF.COMPS:C10:1,2016-01-03T17:05:00Z,27.1690,-82.9260,1030.83,1111122 
COMPS,ioos:station:USF.COMPS:C10:1,2016-01-03T17:35:00Z,27.1690,-82.9260,1030.85,1111122 
COMPS,ioos:station:USF.COMPS:C10:1,2016-01-03T18:05:00Z,27.1690,-82.9260,1030.18,1111122 
COMPS,ioos:station:USF.COMPS:C10:1,2016-01-03T18:35:00Z,27.1690,-82.9260,1030.06,1111122 
COMPS,ioos:station:USF.COMPS:C10:1,2016-01-03T19:05:00Z,27.1690,-82.9260,1029.78,1111122 
COMPS,ioos:station:USF.COMPS:C10:1,2016-01-03T19:35:00Z,27.1690,-82.9260,1029.35,1111122 
COMPS,ioos:station:USF.COMPS:C10:1,2016-01-03T20:05:00Z,27.1690,-82.9260,1029.33,1111122 
COMPS,ioos:station:USF.COMPS:C10:1,2016-01-03T20:35:00Z,27.1690,-82.9260,1028.65,1111122 
COMPS,ioos:station:USF.COMPS:C10:1,2016-01-03T21:05:00Z,27.1690,-82.9260,1028.33,1111122 
COMPS,ioos:station:USF.COMPS:C10:1,2016-01-03T21:35:00Z,27.1690,-82.9260,1028.47,1111122 
COMPS,ioos:station:USF.COMPS:C10:1,2016-01-03T22:05:00Z,27.1690,-82.9260,1028.39,1111122 
COMPS,ioos:station:USF.COMPS:C10:1,2016-01-03T22:35:00Z,27.1690,-82.9260,1028.76,1111122 
COMPS,ioos:station:USF.COMPS:C10:1,2016-01-03T23:05:00Z,27.1690,-82.9260,1028.75,1111122 
COMPS,ioos:station:USF.COMPS:C10:1,2016-01-03T23:35:00Z,27.1690,-82.9260,1029.16,1111122 
COMPS,ioos:station:USF.COMPS:C10:1,2016-01-04T00:05:00Z,27.1690,-82.9260,1029.82,1111122 
COMPS,ioos:station:USF.COMPS:C10:1,2016-01-04T00:35:00Z,27.1690,-82.9260,1030.25,1111122 
COMPS,ioos:station:USF.COMPS:C10:1,2016-01-04T01:05:00Z,27.1690,-82.9260,1030.04,1111122 
COMPS,ioos:station:USF.COMPS:C10:1,2016-01-04T01:35:00Z,27.1690,-82.9260,1030.18,1111122 
COMPS,ioos:station:USF.COMPS:C10:1,2016-01-04T02:05:00Z,27.1690,-82.9260,1030.08,1111122 
COMPS,ioos:station:USF.COMPS:C10:1,2016-01-04T02:35:00Z,27.1690,-82.9260,1029.67,1111122 
COMPS,ioos:station:USF.COMPS:C10:1,2016-01-04T03:05:00Z,27.1690,-82.9260,1029.46,1111122 
COMPS,ioos:station:USF.COMPS:C10:1,2016-01-04T03:35:00Z,27.1690,-82.9260,1029.57,1111122 
COMPS,ioos:station:USF.COMPS:C10:1,2016-01-04T06:05:00Z,27.1690,-82.9260,1029.68,1111122 
COMPS,ioos:station:USF.COMPS:C10:1,2016-01-04T06:35:00Z,27.1690,-82.9260,1029.26,1111122 
COMPS,ioos:station:USF.COMPS:C10:1,2016-01-04T07:05:00Z,27.1690,-82.9260,1028.86,1111122 
COMPS,ioos:station:USF.COMPS:C10:1,2016-01-04T07:35:00Z,27.1690,-82.9260,1028.49,1111122 
COMPS,ioos:station:USF.COMPS:C10:1,2016-01-04T09:05:00Z,27.1690,-82.9260,1028.53,1111122 
COMPS,ioos:station:USF.COMPS:C10:1,2016-01-04T09:35:00Z,27.1690,-82.9260,1028.59,1111122 
COMPS,ioos:station:USF.COMPS:C10:1,2016-01-04T10:05:00Z,27.1690,-82.9260,1028.98,1111122 
COMPS,ioos:station:USF.COMPS:C10:1,2016-01-04T10:35:00Z,27.1690,-82.9260,1029.45,1111122 
COMPS,ioos:station:USF.COMPS:C10:1,2016-01-04T11:05:00Z,27.1690,-82.9260,1029.01,1111122 
COMPS,ioos:station:USF.COMPS:C10:1,2016-01-04T11:35:00Z,27.1690,-82.9260,1029.73,1111122 
COMPS,ioos:station:USF.COMPS:C10:1,2016-01-04T12:05:00Z,27.1690,-82.9260,1029.75,1111122 
COMPS,ioos:station:USF.COMPS:C10:1,2016-01-04T12:35:00Z,27.1690,-82.9260,1029.76,1111122 
COMPS,ioos:station:USF.COMPS:C10:1,2016-01-04T13:05:00Z,27.1690,-82.9260,1030.22,1111122 
COMPS,ioos:station:USF.COMPS:C10:1,2016-01-04T13:35:00Z,27.1690,-82.9260,1030.78,1111122 
COMPS,ioos:station:USF.COMPS:C10:1,2016-01-04T15:05:00Z,27.1690,-82.9260,1031.72,1111122 
COMPS,ioos:station:USF.COMPS:C10:1,2016-01-04T15:35:00Z,27.1690,-82.9260,1031.75,1111122 
COMPS,ioos:station:USF.COMPS:C10:1,2016-01-04T16:05:00Z,27.1690,-82.9260,1031.72,1111122 
COMPS,ioos:station:USF.COMPS:C10:1,2016-01-04T16:35:00Z,27.1690,-82.9260,1031.59,1111122 
COMPS,ioos:station:USF.COMPS:C10:1,2016-01-04T19:05:00Z,27.1690,-82.9260,1030.75,1111122 
COMPS,ioos:station:USF.COMPS:C10:1,2016-01-04T19:35:00Z,27.1690,-82.9260,1030.63,1111122 
COMPS,ioos:station:USF.COMPS:C10:1,2016-01-04T20:05:00Z,27.1690,-82.9260,1030.56,1111122 
COMPS,ioos:station:USF.COMPS:C10:1,2016-01-04T20:35:00Z,27.1690,-82.9260,1030.7,1111122 
COMPS,ioos:station:USF.COMPS:C10:1,2016-01-04T21:05:00Z,27.1690,-82.9260,1030.81,1111122 
COMPS,ioos:station:USF.COMPS:C10:1,2016-01-04T21:35:00Z,27.1690,-82.9260,1030.71,1111122 
COMPS,ioos:station:USF.COMPS:C10:1,2016-01-04T22:05:00Z,27.1690,-82.9260,1030.86,1111122 
COMPS,ioos:station:USF.COMPS:C10:1,2016-01-04T22:35:00Z,27.1690,-82.9260,1030.92,1111122 
COMPS,ioos:station:USF.COMPS:C10:1,2016-01-04T23:05:00Z,27.1690,-82.9260,1031.18,1111122 
COMPS,ioos:station:USF.COMPS:C10:1,2016-01-04T23:35:00Z,27.1690,-82.9260,1031.28,1111122 
COMPS,ioos:station:USF.COMPS:C10:1,2016-01-05T01:05:00Z,27.1690,-82.9260,1032.27,1111122 
COMPS,ioos:station:USF.COMPS:C10:1,2016-01-05T01:35:00Z,27.1690,-82.9260,1032.51,1111122 
COMPS,ioos:station:USF.COMPS:C10:1,2016-01-05T02:05:00Z,27.1690,-82.9260,1032.69,1111122 
COMPS,ioos:station:USF.COMPS:C10:1,2016-01-05T02:35:00Z,27.1690,-82.9260,1032.93,1111122 
COMPS,ioos:station:USF.COMPS:C10:1,2016-01-05T05:05:00Z,27.1690,-82.9260,1033.48,1111122 
COMPS,ioos:station:USF.COMPS:C10:1,2016-01-05T05:35:00Z,27.1690,-82.9260,1033.44,1111122 
COMPS,ioos:station:USF.COMPS:C10:1,2016-01-05T06:05:00Z,27.1690,-82.9260,1033.37,1111122 
COMPS,ioos:station:USF.COMPS:C10:1,2016-01-05T06:35:00Z,27.1690,-82.9260,1033.48,1111122 
COMPS,ioos:station:USF.COMPS:C10:1,2016-01-05T07:05:00Z,27.1690,-82.9260,1033.66,1111122 
COMPS,ioos:station:USF.COMPS:C10:1,2016-01-05T07:35:00Z,27.1690,-82.9260,1034.0,1111122 
COMPS,ioos:station:USF.COMPS:C10:1,2016-01-05T08:05:00Z,27.1690,-82.9260,1033.87,1111122 
COMPS,ioos:station:USF.COMPS:C10:1,2016-01-05T08:35:00Z,27.1690,-82.9260,1034.32,1111122 
COMPS,ioos:station:USF.COMPS:C10:1,2016-01-05T09:05:00Z,27.1690,-82.9260,1034.35,1111122 
COMPS,ioos:station:USF.COMPS:C10:1,2016-01-05T09:35:00Z,27.1690,-82.9260,1034.38,1111122 
COMPS,ioos:station:USF.COMPS:C10:1,2016-01-05T10:05:00Z,27.1690,-82.9260,1034.25,1111122 
COMPS,ioos:station:USF.COMPS:C10:1,2016-01-05T10:35:00Z,27.1690,-82.9260,1034.35,1111122 
COMPS,ioos:station:USF.COMPS:C10:1,2016-01-05T11:05:00Z,27.1690,-82.9260,1034.47,1111122 
COMPS,ioos:station:USF.COMPS:C10:1,2016-01-05T11:35:00Z,27.1690,-82.9260,1034.6,1111122 
COMPS,ioos:station:USF.COMPS:C10:1,2016-01-05T12:05:00Z,27.1690,-82.9260,1034.75,1111122 
COMPS,ioos:station:USF.COMPS:C10:1,2016-01-05T12:35:00Z,27.1690,-82.9260,1034.75,1111122 
COMPS,ioos:station:USF.COMPS:C10:1,2016-01-05T13:05:00Z,27.1690,-82.9260,1034.97,1111122 
COMPS,ioos:station:USF.COMPS:C10:1,2016-01-05T13:35:00Z,27.1690,-82.9260,1035.3,1111122 
COMPS,ioos:station:USF.COMPS:C10:1,2016-01-05T14:05:00Z,27.1690,-82.9260,1035.62,1111122 
COMPS,ioos:station:USF.COMPS:C10:1,2016-01-05T14:35:00Z,27.1690,-82.9260,1035.77,1111122 
COMPS,ioos:station:USF.COMPS:C10:1,2016-01-05T15:05:00Z,27.1690,-82.9260,1036.24,1111122 
COMPS,ioos:station:USF.COMPS:C10:1,2016-01-05T15:35:00Z,27.1690,-82.9260,1036.16,1111122 
COMPS,ioos:station:USF.COMPS:C10:1,2016-01-05T16:05:00Z,27.1690,-82.9260,1036.48,1111122 
COMPS,ioos:station:USF.COMPS:C10:1,2016-01-05T16:35:00Z,27.1690,-82.9260,1036.32,1111122 
COMPS,ioos:station:USF.COMPS:C10:1,2016-01-05T17:05:00Z,27.1690,-82.9260,1035.97,1111122 
COMPS,ioos:station:USF.COMPS:C10:1,2016-01-05T17:35:00Z,27.1690,-82.9260,1035.42,1111122 
COMPS,ioos:station:USF.COMPS:C10:1,2016-01-05T18:05:00Z,27.1690,-82.9260,1034.92,1111122 
COMPS,ioos:station:USF.COMPS:C10:1,2016-01-05T18:35:00Z,27.1690,-82.9260,1034.58,1111122 
COMPS,ioos:station:USF.COMPS:C10:1,2016-01-05T19:05:00Z,27.1690,-82.9260,1034.46,1111122 
COMPS,ioos:station:USF.COMPS:C10:1,2016-01-05T19:35:00Z,27.1690,-82.9260,1034.23,1111122 
COMPS,ioos:station:USF.COMPS:C10:1,2016-01-05T20:05:00Z,27.1690,-82.9260,1033.92,1111122 
COMPS,ioos:station:USF.COMPS:C10:1,2016-01-05T20:35:00Z,27.1690,-82.9260,1033.91,1111122 
COMPS,ioos:station:USF.COMPS:C10:1,2016-01-06T05:05:00Z,27.1690,-82.9260,1035.79,1111122 
COMPS,ioos:station:USF.COMPS:C10:1,2016-01-06T05:35:00Z,27.1690,-82.9260,1035.56,1111122 
COMPS,ioos:station:USF.COMPS:C10:1,2016-01-06T06:05:00Z,27.1690,-82.9260,1035.08,1111122 
COMPS,ioos:station:USF.COMPS:C10:1,2016-01-06T06:35:00Z,27.1690,-82.9260,1034.96,1111122 
COMPS,ioos:station:USF.COMPS:C10:1,2016-01-06T07:05:00Z,27.1690,-82.9260,1034.6,1111122 
COMPS,ioos:station:USF.COMPS:C10:1,2016-01-06T07:35:00Z,27.1690,-82.9260,1034.24,1111122 
COMPS,ioos:station:USF.COMPS:C10:1,2016-01-06T08:05:00Z,27.1690,-82.9260,1034.23,1111122 
COMPS,ioos:station:USF.COMPS:C10:1,2016-01-06T08:35:00Z,27.1690,-82.9260,1034.24,1111122 
COMPS,ioos:station:USF.COMPS:C10:1,2016-01-06T11:05:00Z,27.1690,-82.9260,1034.42,1111122 
COMPS,ioos:station:USF.COMPS:C10:1,2016-01-06T11:35:00Z,27.1690,-82.9260,1034.6,1111122 
COMPS,ioos:station:USF.COMPS:C10:1,2016-01-06T12:05:00Z,27.1690,-82.9260,1034.64,1111122 
COMPS,ioos:station:USF.COMPS:C10:1,2016-01-06T12:35:00Z,27.1690,-82.9260,1034.76,1111122 
COMPS,ioos:station:USF.COMPS:C10:1,2016-01-06T13:05:00Z,27.1690,-82.9260,1034.87,1111122 
COMPS,ioos:station:USF.COMPS:C10:1,2016-01-06T13:35:00Z,27.1690,-82.9260,1034.83,1111122 
COMPS,ioos:station:USF.COMPS:C10:1,2016-01-06T14:05:00Z,27.1690,-82.9260,1034.67,1111122 
COMPS,ioos:station:USF.COMPS:C10:1,2016-01-06T14:35:00Z,27.1690,-82.9260,1034.92,1111122 
COMPS,ioos:station:USF.COMPS:C10:1,2016-01-06T15:05:00Z,27.1690,-82.9260,1034.91,1111122 
COMPS,ioos:station:USF.COMPS:C10:1,2016-01-06T15:35:00Z,27.1690,-82.9260,1034.47,1111122 
COMPS,ioos:station:USF.COMPS:C10:1,2016-01-06T16:05:00Z,27.1690,-82.9260,1034.73,1111122 
COMPS,ioos:station:USF.COMPS:C10:1,2016-01-06T16:35:00Z,27.1690,-82.9260,1034.62,1111122 
COMPS,ioos:station:USF.COMPS:C10:1,2016-01-06T17:05:00Z,27.1690,-82.9260,1034.09,1111122 
COMPS,ioos:station:USF.COMPS:C10:1,2016-01-06T17:35:00Z,27.1690,-82.9260,1033.55,1111122 
COMPS,ioos:station:USF.COMPS:C10:1,2016-01-06T18:05:00Z,27.1690,-82.9260,1032.94,1111122 
COMPS,ioos:station:USF.COMPS:C10:1,2016-01-06T18:35:00Z,27.1690,-82.9260,1032.45,1111122 
COMPS,ioos:station:USF.COMPS:C10:1,2016-01-06T19:05:00Z,27.1690,-82.9260,1032.11,1111122 
COMPS,ioos:station:USF.COMPS:C10:1,2016-01-06T19:35:00Z,27.1690,-82.9260,1031.71,1111122 
COMPS,ioos:station:USF.COMPS:C10:1,2016-01-06T20:05:00Z,27.1690,-82.9260,1031.75,1111122 
COMPS,ioos:station:USF.COMPS:C10:1,2016-01-06T20:35:00Z,27.1690,-82.9260,1031.73,1111122 
COMPS,ioos:station:USF.COMPS:C10:1,2016-01-06T21:05:00Z,27.1690,-82.9260,1031.66,1111122 
COMPS,ioos:station:USF.COMPS:C10:1,2016-01-06T21:35:00Z,27.1690,-82.9260,1031.77,1111122 
COMPS,ioos:station:USF.COMPS:C10:1,2016-01-06T23:05:00Z,27.1690,-82.9260,1031.6,1111122 
COMPS,ioos:station:USF.COMPS:C10:1,2016-01-06T23:35:00Z,27.1690,-82.9260,1031.79,1111122 
COMPS,ioos:station:USF.COMPS:C10:1,2016-01-07T02:05:00Z,27.1690,-82.9260,1032.17,1111122 
COMPS,ioos:station:USF.COMPS:C10:1,2016-01-07T02:35:00Z,27.1690,-82.9260,1032.41,1111122 
COMPS,ioos:station:USF.COMPS:C10:1,2016-01-07T05:05:00Z,27.1690,-82.9260,1032.3,1111122 
COMPS,ioos:station:USF.COMPS:C10:1,2016-01-07T05:35:00Z,27.1690,-82.9260,1032.11,1111122 
COMPS,ioos:station:USF.COMPS:C10:1,2016-01-07T06:05:00Z,27.1690,-82.9260,1031.8,1111122 
COMPS,ioos:station:USF.COMPS:C10:1,2016-01-07T06:35:00Z,27.1690,-82.9260,1031.61,1111122 
COMPS,ioos:station:USF.COMPS:C10:1,2016-01-07T07:05:00Z,27.1690,-82.9260,1031.36,1111122 
COMPS,ioos:station:USF.COMPS:C10:1,2016-01-07T07:35:00Z,27.1690,-82.9260,1031.17,1111122 
COMPS,ioos:station:USF.COMPS:C10:1,2016-01-07T08:05:00Z,27.1690,-82.9260,1030.7,1111122 
COMPS,ioos:station:USF.COMPS:C10:1,2016-01-07T08:35:00Z,27.1690,-82.9260,1030.51,1111122 
COMPS,ioos:station:USF.COMPS:C10:1,2016-01-07T09:05:00Z,27.1690,-82.9260,1030.28,1111122 
COMPS,ioos:station:USF.COMPS:C10:1,2016-01-07T09:35:00Z,27.1690,-82.9260,1030.11,1111122 
COMPS,ioos:station:USF.COMPS:C10:1,2016-01-07T10:05:00Z,27.1690,-82.9260,1030.15,1111122 
COMPS,ioos:station:USF.COMPS:C10:1,2016-01-07T10:35:00Z,27.1690,-82.9260,1030.21,1111122 
COMPS,ioos:station:USF.COMPS:C10:1,2016-01-07T11:05:00Z,27.1690,-82.9260,1030.19,1111122 
COMPS,ioos:station:USF.COMPS:C10:1,2016-01-07T11:35:00Z,27.1690,-82.9260,1030.23,1111122 
COMPS,ioos:station:USF.COMPS:C10:1,2016-01-07T12:05:00Z,27.1690,-82.9260,1030.29,1111122 
COMPS,ioos:station:USF.COMPS:C10:1,2016-01-07T12:35:00Z,27.1690,-82.9260,1030.45,1111122 
COMPS,ioos:station:USF.COMPS:C10:1,2016-01-07T13:05:00Z,27.1690,-82.9260,1030.78,1111122 
COMPS,ioos:station:USF.COMPS:C10:1,2016-01-07T13:35:00Z,27.1690,-82.9260,1030.77,1111122 
COMPS,ioos:station:USF.COMPS:C10:1,2016-01-07T14:05:00Z,27.1690,-82.9260,1031.19,1111122 
COMPS,ioos:station:USF.COMPS:C10:1,2016-01-07T14:35:00Z,27.1690,-82.9260,1031.58,1111122 
COMPS,ioos:station:USF.COMPS:C10:1,2016-01-07T15:05:00Z,27.1690,-82.9260,1031.73,1111122 
COMPS,ioos:station:USF.COMPS:C10:1,2016-01-07T15:35:00Z,27.1690,-82.9260,1031.75,1111122 
COMPS,ioos:station:USF.COMPS:C10:1,2016-01-07T16:05:00Z,27.1690,-82.9260,1031.95,1111122 
COMPS,ioos:station:USF.COMPS:C10:1,2016-01-07T16:35:00Z,27.1690,-82.9260,1031.56,1111122 
COMPS,ioos:station:USF.COMPS:C10:1,2016-01-07T17:05:00Z,27.1690,-82.9260,1031.02,1111122 
COMPS,ioos:station:USF.COMPS:C10:1,2016-01-07T17:35:00Z,27.1690,-82.9260,1030.58,1111122 
COMPS,ioos:station:USF.COMPS:C10:1,2016-01-07T18:05:00Z,27.1690,-82.9260,1029.98,1111122 
COMPS,ioos:station:USF.COMPS:C10:1,2016-01-07T18:35:00Z,27.1690,-82.9260,1029.45,1111122 
COMPS,ioos:station:USF.COMPS:C10:1,2016-01-07T19:05:00Z,27.1690,-82.9260,1029.3,1111122 
COMPS,ioos:station:USF.COMPS:C10:1,2016-01-07T19:35:00Z,27.1690,-82.9260,1028.82,1111122 
COMPS,ioos:station:USF.COMPS:C10:1,2016-01-07T20:05:00Z,27.1690,-82.9260,1028.72,1111122 
COMPS,ioos:station:USF.COMPS:C10:1,2016-01-07T20:35:00Z,27.1690,-82.9260,1028.77,1111122 
COMPS,ioos:station:USF.COMPS:C10:1,2016-01-07T21:05:00Z,27.1690,-82.9260,1028.72,1111122 
COMPS,ioos:station:USF.COMPS:C10:1,2016-01-07T21:35:00Z,27.1690,-82.9260,1028.62,1111122 
COMPS,ioos:station:USF.COMPS:C10:1,2016-01-07T22:05:00Z,27.1690,-82.9260,1028.94,1111122 
COMPS,ioos:station:USF.COMPS:C10:1,2016-01-07T22:35:00Z,27.1690,-82.9260,1028.67,1111122 
COMPS,ioos:station:USF.COMPS:C10:1,2016-01-07T23:05:00Z,27.1690,-82.9260,1028.59,1111122 
COMPS,ioos:station:USF.COMPS:C10:1,2016-01-07T23:35:00Z,27.1690,-82.9260,1028.96,1111122 
COMPS,ioos:station:USF.COMPS:C10:1,2016-01-08T05:05:00Z,27.1690,-82.9260,1027.76,1111122 
COMPS,ioos:station:USF.COMPS:C10:1,2016-01-08T05:35:00Z,27.1690,-82.9260,1027.41,1111122 
COMPS,ioos:station:USF.COMPS:C10:1,2016-01-08T06:05:00Z,27.1690,-82.9260,1027.14,1111122 
COMPS,ioos:station:USF.COMPS:C10:1,2016-01-08T06:35:00Z,27.1690,-82.9260,1027.18,1111122 
COMPS,ioos:station:USF.COMPS:C10:1,2016-01-08T07:05:00Z,27.1690,-82.9260,1027.33,1111122 
COMPS,ioos:station:USF.COMPS:C10:1,2016-01-08T07:35:00Z,27.1690,-82.9260,1027.32,1111122 
COMPS,ioos:station:USF.COMPS:C10:1,2016-01-08T08:05:00Z,27.1690,-82.9260,1026.74,1111122 
COMPS,ioos:station:USF.COMPS:C10:1,2016-01-08T08:35:00Z,27.1690,-82.9260,1026.61,1111122 
COMPS,ioos:station:USF.COMPS:C10:1,2016-01-08T09:05:00Z,27.1690,-82.9260,1026.53,1111122 
COMPS,ioos:station:USF.COMPS:C10:1,2016-01-08T09:35:00Z,27.1690,-82.9260,1026.4,1111122 
COMPS,ioos:station:USF.COMPS:C10:1,2016-01-08T10:05:00Z,27.1690,-82.9260,1026.32,1111122 
COMPS,ioos:station:USF.COMPS:C10:1,2016-01-08T10:35:00Z,27.1690,-82.9260,1025.97,1111122 
COMPS,ioos:station:USF.COMPS:C10:1,2016-01-08T11:05:00Z,27.1690,-82.9260,1026.09,1111122 
COMPS,ioos:station:USF.COMPS:C10:1,2016-01-08T11:35:00Z,27.1690,-82.9260,1026.59,1111122 
COMPS,ioos:station:USF.COMPS:C10:1,2016-01-08T12:05:00Z,27.1690,-82.9260,1026.58,1111122 
COMPS,ioos:station:USF.COMPS:C10:1,2016-01-08T12:35:00Z,27.1690,-82.9260,1026.61,1111122 
COMPS,ioos:station:USF.COMPS:C10:1,2016-01-08T13:05:00Z,27.1690,-82.9260,1026.65,1111122 
COMPS,ioos:station:USF.COMPS:C10:1,2016-01-08T13:35:00Z,27.1690,-82.9260,1026.89,1111122 
COMPS,ioos:station:USF.COMPS:C10:1,2016-01-08T14:05:00Z,27.1690,-82.9260,1027.01,1111122 
COMPS,ioos:station:USF.COMPS:C10:1,2016-01-08T14:35:00Z,27.1690,-82.9260,1027.15,1111122 
COMPS,ioos:station:USF.COMPS:C10:1,2016-01-08T15:05:00Z,27.1690,-82.9260,1027.55,1111122 
COMPS,ioos:station:USF.COMPS:C10:1,2016-01-08T15:35:00Z,27.1690,-82.9260,1027.75,1111122 